THOR ABLESTAR DEB, 48814

Orbit data source: Space-Track

THOR ABLESTAR DEB, 48814 is space debris in LEO originally from a launch on Thu, 29 Jun 1961 UTC launched from the Air Force Eastern Test Range (AFETR). Debris objects in space refer to the collection of defunct objects orbiting the Earth. Examples of debris include non-operational satellites, rocket bodies, and fragments generated from explosions, collisions, or faulty payload assembly.

Loading next visibility...
Identifier
48814, 1961-015MS
Orbit
LEO
Country
Flag of USUS
Related business
Manufacturer
Unknown
Mission
Spacecraft
Bus & Motor
Unknown
Mass
Unknown
Launch date (UTC)
1961-06-29 (64 years ago)
Launch vehicle
Unknown
Launch site
Air Force Eastern Test Range (AFETR)
Object type
Payload
Rocket body
Debris
Shape & HBR
Unknown shape, 0.1 m
Radar Cross Section
Small (<0.1 m²)

Expand to show TLE details & history
Last TLE update: 19 hours ago

TLE from 19 hours ago
0 THOR ABLESTAR DEB
1 48814U 61015MS  25299.76043769  .00004310  00000-0  31878-2 0  9994
2 48814  65.9041 111.1002 0031816 259.0109 100.7385 13.96014693602962
Epoch: 2025-10-26T18:15Z
TLE epoch observation values (Epoch: 2025-10-26T18:15:01.816Z)
Latitude
-0.00006°
Longitude
161.9706°
Altitude
914.031 km
Speed
7.393 km/s
True Right ascension
07h 24m 24s
True Declination
0° 00' 00"
Sunlit
Object was in daylight at epoch
Visualization orbit readout
Latitude
Unknown
Longitude
Unknown
Altitude
Unknown
Speed
Unknown
Apparent Right ascension
Unknown
Apparent Declination
Unknown
Sunlit
N/A
Visualization observer readout
Local Sidereal Time
08:20:59
Azimuth
Unknown
Elevation
Unknown
Doppler factor
Unknown
Orbital elements
Apogee altitude
929.298 km
Perigee altitude
882.946 km
Semi-major axis
7,284.259 km
Eccentricity
0.00318
Inclination
65.9041°
RAAN
111.1002°
Arg. of periapsis
259.0109°
True anomaly
101.09643°
Mean anomaly
100.7385°
Eccentric anomaly
100.91749°
Mean motion
3.49112 °/min
Orbital period
103.12 mins
BSTAR
0.0031878
Loading maneuver chart data...
Computing Atmospheric mass density...

Documentation

Showing up to 5 results
|